Location: Unspecified
(41.1850°N, 73.2650°W)
Time: 09:52:30
(UTC+00:00)

BlueWalker 3 - Pass Details

Date: 23 February 2026
Orbit: 451 x 458 km, 53.2° (Epoch: 6 March)

Event Time Altitude Azimuth Distance (km) Brightness Sun altitude
Exits shadow 10:28:26 - 209° (SSW) 2,088 4.8 -13.5°
Reaches altitude 10° 10:29:43 10° 203° (SSW) 1,590 4.3 -13.3°
Maximum altitude 10:33:03 38° 134° (SE) 716 3.1 -12.7°
Drops below altitude 10° 10:36:24 10° 65° (ENE) 1,597 5.5 -12.0°
Sets 10:38:38 0° 58° (ENE) 2,472 6.4 -11.6°
